User: anonymous   Login
Location: Glencliff
(36.1226°N, 86.7183°W)
Time: 11:49:46
(UTC+00:00)
Language:

Unknown - Orbit

View from above orbital plane
View from above orbital plane
View from above satellite
View from above satellite

Ground track
Ground track

The orbit data is extracted from the following two-line orbital elements,

1 44265U 19029AG  19292.18695540  .00001260  00000-0  10583-3 0  9992
2 44265  53.0008 226.9694 0000927  70.2213 289.8875 15.05501345 22482
Epoch (UTC): 19 October 2019 04:29:12
Eccentricity: 0.0000927
inclination: 53.0008°
perigee height: 549 km
apogee height: 550 km
right ascension of ascending node: 226.9694°
argument of perigee: 70.2213°
revolutions per day: 15.05501345
mean anomaly at epoch: 289.8875°
orbit number at epoch: 2248

The dashed part of the orbit path shows where the satellite is in the earth's shadow,  

DLR